Regional Weather Roundup
Issued by NWS State College, PA

Home | Current Version | Previous Version | Graphics & Text | Print | Product List | Glossary Off
Versions: 1 2 3 4 5 6 7 8 9 10 11 12 13 14 15 16 17 18 19 20 21 22 23 24 25 26 27 28 29 30 31 32 33 34 35 36 37 38 39 40 41 42 43 44 45 46 47 48 49 50

527
ASUS41 KCTP 291610
RWRCTP

REGIONAL WEATHER ROUNDUP
NATIONAL WEATHER SERVICE STATE COLLEGE PA
1200 PM EDT SUN MAY 29 2016

Note: "fair" indicates few or no clouds below 12,000 feet with no
significant weather and/or obstructions to visibility.

* = STATION THAT DOES NOT REPORT PRECIPITATION /E.G. RAIN...SNOW...ETC/
    THUNDER OR FOG.

PAZ002>004-007>009-013>016-020>023-029>032-291700-
WESTERN PENNSYLVANIA

CITY           SKY/WX    TMP DP  RH WIND       PRES   REMARKS
ERIE           CLOUDY    84  64  50 SW7       30.07F
MEADVILLE      CLOUDY    76  66  71 VRB5      30.11F
FRANKLIN*      CLOUDY    75  64  69 S3        30.16S
NEW CASTLE     FAIR      80  68  66 CALM      30.12F
BEAVER COUNTY  NOT AVBL
BUTLER*        CLOUDY    79  66  65 NW5       30.16S
PITTSBURGH INT CLOUDY    81  64  56 W5        30.12S
PITTSBURGH     CLOUDY    80  63  55 CALM      30.11F
INDIANA*       SUNNY     79  70  73 CALM      30.16S
LATROBE        MOSUNNY   81  68  65 VRB5      30.13S
WASHINGTON CO* CLOUDY    79  68  69 SW5       30.14S
$$

PAZ004>006-010>012-017>019-024>028-033>037-041-042-045-046-049>053-291700-
CENTRAL PENNSYLVANIA

CITY           SKY/WX    TMP DP  RH WIND       PRES   REMARKS
BRADFORD       CLOUDY    78  65  63 VRB6      30.16F
DUBOIS         CLOUDY    79  65  62 VRB3      30.14F
CLEARFIELD     CLOUDY    82  66  58 MISG      30.13F
JOHNSTOWN      CLOUDY    79  63  57 NE5       30.16F
ALTOONA        MOSUNNY   82  57  42 SE8       30.15F
STATE COLLEGE  SUNNY     82  63  51 SW8       30.13F
WILLIAMSPORT   SUNNY     86  65  49 VRB3      30.09F
SELINSGROVE    MOSUNNY   87  61  41 S12       30.11F
FT INDIANTOWN  MOSUNNY   82  66  58 VRB1      30.13F
CAPITAL CITY   PTSUNNY   84  65  52 E6        30.12F
HARRISBURG     PTSUNNY   83  65  54 S5        30.11F
YORK           MOSUNNY   81  63  54 S7        30.13F
$$

PAZ038>040-043-044-047-048-054-055-060>062-067>071-291700-
EASTERN PENNSYLVANIA

CITY           SKY/WX    TMP DP  RH WIND       PRES   REMARKS
SCRANTON       SUNNY     86  66  51 W8        30.11F
MOUNT POCONO   PTSUNNY   78  62  57 S13       30.18S
ALLENTOWN      SUNNY     86  63  45 S6        30.13F
QUAKERTOWN*    SUNNY     84  64  51 S6        30.15F
READING        SUNNY     85  63  47 S7        30.12F
LANCASTER      MOSUNNY   82  63  52 CALM      30.13F
COATESVILLE    MOSUNNY   81  63  54 VRB5      30.17S
POTTSTOWN      SUNNY     82  62  50 SW6       30.15F
BLUE BELL      SUNNY     81  64  57 SE6       30.13F
DOYLESTOWN     SUNNY     81  60  48 S5        30.14S
WILLOW GROVE   NOT AVBL
NORTH PHILA    SUNNY     83  62  49 SW8       30.15F
PHILADELPHIA   PTSUNNY   82  60  47 S7        30.14F
$$




USA.gov is the U.S. government's official web portal to all federal, state and local government web resources and services.